Simultaneous Nadir Overpasses (SNOs) Predictions

Prediction of SNOs between FY3D and AQUA Satellite Orbit:

Table of predicted SNOs for the next 14.0 days since TLE Epoch: 7/25/2020
Index Date (FY3D) Time (FY3D) Lat,Lon (FY3D) SZA (FY3D ) Date (AQUA) Time (AQUA) Lat,Lon (AQUA) SZA (AQUA ) Distance(km) Time Diff (sec)
1 07/25/2020 23:25:36 -59.47,-133.61 84.07 07/25/2020 23:26:29 -59.47,-133.61 84.13 0.34 53
2 07/26/2020 00:14:35 65.21, 38.47 90.09 07/26/2020 00:14:14 65.21, 38.47 90.11 0.41 21
3 07/28/2020 15:42:05 -59.14, -17.92 83.16 07/28/2020 15:43:04 -59.13, -17.95 83.22 1.66 59
4 07/28/2020 16:31:02 65.00, 154.17 90.90 07/28/2020 16:30:47 65.00, 154.15 90.92 0.77 15
5 07/31/2020 07:58:57 -57.45, 96.90 80.87 07/31/2020 08:00:01 -57.46, 96.92 80.95 0.85 64
6 07/31/2020 08:47:26 64.90, -90.02 91.62 07/31/2020 08:47:17 64.89, -90.07 91.65 2.26 9
7 07/31/2020 09:28:59 -77.61,-163.68 119.48 07/31/2020 09:27:46 -78.14,-161.12 119.19 84.11 73
8 08/03/2020 00:15:24 -57.23,-147.32 80.01 08/03/2020 00:16:34 -57.23,-147.34 80.09 1.03 70
9 08/03/2020 01:04:12 63.63, 24.71 93.56 08/03/2020 01:04:08 63.63, 24.72 93.56 0.45 4
10 08/03/2020 01:49:40 -79.28,-130.64 104.39 08/03/2020 01:48:26 -79.59,-131.79 104.23 41.93 74
11 08/05/2020 16:33:17 -52.12, -34.19 74.30 08/05/2020 16:34:31 -52.07, -34.09 74.39 8.63 74
12 08/05/2020 17:20:34 63.69, 140.68 94.17 08/05/2020 17:20:36 63.69, 140.65 94.18 1.70 2
